This demonstration page uses our WeatherBlox Daily Observations layout. Learn more.

40.92945, -100.16068

Hourly Observations for March 11, 2020

Temp ( °F °C ) Dew Point ( °F °C ) Humidity (%) Winds ( mph kmh ) Pressure ( in mb ) Visibility ( mi km ) Precip ( " mm )
12:15 am 00:15 Clear 37 2.7 37 2.5 99 99 N 9 15 30.15 1021 10 16.0934 0 0
12:35 am 00:35 Clear 37 2.7 37 2.6 99 99 N 8 13 30.15 1021 7 11.26538 0 0
12:55 am 00:55 Clear with Mist and Fog 36 2 36 2 100 100 N 5 7 30.15 1021 5 8.0467 0 0
1:15 am 01:15 Cloudy with Light Snow 36 2.4 36 2.4 100 100 N 8 13 30.14 1021 0.25 0.402335 0 0
1:35 am 01:35 Cloudy with Fog 37 2.6 37 2.6 100 100 N 5 7 30.13 1020 0.25 0.402335 0 0
1:55 am 01:55 Cloudy with Fog 37 2.7 37 2.7 100 100 NNE 3 6 30.13 1020 0.25 0.402335 0 0
2:15 am 02:15 Cloudy with Fog 37 2.6 37 2.6 100 100 N 6 9 30.13 1020 0.25 0.402335 0 0
2:35 am 02:35 Cloudy with Fog 37 2.5 37 2.5 100 100 N 5 7 30.13 1020 0.25 0.402335 0 0
2:55 am 02:55 Cloudy with Light Snow 37 2.6 37 2.6 100 100 NE 3 6 30.13 1020 0.25 0.402335 0 0
3:15 am 03:15 Cloudy with Light Snow 37 2.5 37 2.5 100 100 NE 3 6 30.12 1020 0.25 0.402335 0 0
3:35 am 03:35 Cloudy with Fog 37 2.6 37 2.6 100 100 Calm 30.11 1020 0.25 0.402335 0 0
3:55 am 03:55 Cloudy with Fog 36 2.3 36 2.3 100 100 Calm 30.11 1020 0.25 0.402335 0 0
4:15 am 04:15 Cloudy with Fog 36 2.3 36 2.3 100 100 Calm 30.11 1020 0.25 0.402335 0 0
4:35 am 04:35 Cloudy with Fog 36 2.2 36 2.2 100 100 NNW 3 6 30.11 1019 0.25 0.402335 0 0
4:55 am 04:55 Cloudy with Fog 36 2.1 36 2.1 100 100 NNW 6 9 30.11 1020 0.25 0.402335 0 0
5:15 am 05:15 Cloudy with Fog 36 2 36 2 100 100 N 5 7 30.11 1020 0.25 0.402335 0 0
5:35 am 05:35 Cloudy with Fog 35 1.5 35 1.5 100 100 NW 3 6 30.1 1019 0.25 0.402335 0 0
5:55 am 05:55 Cloudy with Fog 34 1.2 34 1.2 100 100 NW 5 7 30.11 1019 0.25 0.402335 0 0
6:15 am 06:15 Cloudy with Fog 34 1.3 34 1.3 100 100 WNW 3 6 30.11 1020 0.25 0.402335 0 0
6:35 am 06:35 Cloudy with Fog 35 1.5 35 1.5 100 100 NW 5 7 30.11 1020 0.25 0.402335 0 0
6:55 am 06:55 Cloudy with Fog 34 1.1 34 1.1 100 100 WNW 6 9 30.12 1020 0.25 0.402335 0 0
7:15 am 07:15 Cloudy with Fog 34 1 34 1 100 100 NW 3 6 30.12 1020 0.25 0.402335 0 0
7:35 am 07:35 Cloudy with Fog 34 1.2 34 1.2 100 100 WNW 7 11 30.12 1020 0.25 0.402335 0 0
7:55 am 07:55 Cloudy with Fog 34 1 34 1 100 100 W 6 9 30.12 1020 0.25 0.402335 0 0
8:15 am 08:15 Cloudy with Fog 34 1.1 34 1.1 100 100 W 3 6 30.11 1020 N/A 0 0
8:35 am 08:35 Cloudy with Fog 33 0.8 33 0.8 100 100 WNW 5 7 30.12 1020 N/A 0 0
8:55 am 08:55 Cloudy with Fog 34 1.1 34 1.1 100 100 W 6 9 30.12 1020 N/A 0 0
9:15 am 09:15 Cloudy with Fog 34 1.1 34 1.1 100 100 NW 6 9 30.12 1020 N/A 0 0
9:35 am 09:35 Cloudy with Fog 34 1.1 34 1.1 100 100 NW 6 9 30.12 1020 N/A 0 0
9:55 am 09:55 Cloudy with Fog 34 1.1 34 1.1 100 100 W 5 7 30.12 1020 N/A 0 0
10:15 am 10:15 Cloudy with Fog 35 1.9 35 1.9 100 100 W 3 6 30.1 1019 N/A 0 0
10:35 am 10:35 Cloudy with Fog 37 2.9 37 2.9 100 100 WSW 3 6 30.09 1019 0.25 0.402335 0 0
10:55 am 10:55 Partly Cloudy 40 4.6 40 4.6 100 100 Calm 30.06 1018 10 16.0934 0 0
11:15 am 11:15 Sunny 43 6.1 42 5.6 97 97 Calm 30.05 1018 10 16.0934 0 0
11:35 am 11:35 Sunny 46 8 44 6.5 90 90 Calm 30.01 1016 10 16.0934 0 0
11:55 am 11:55 Sunny 51 10.4 47 8.2 86 86 SW 3 6 29.99 1015 10 16.0934 0 0
12:15 pm 12:15 Sunny 58 14.2 43 5.9 58 58 SW 13 20 29.93 1014 10 16.0934 0 0
12:35 pm 12:35 Sunny 61 16 37 2.8 41 41 SW 17 28 29.91 1013 10 16.0934 0 0
12:55 pm 12:55 Sunny 62 16.7 36 2.3 38 38 SSW 18 30 29.88 1012 10 16.0934 0 0
1:15 pm 13:15 Sunny 64 17.8 37 2.5 36 36 SW 16 26 29.86 1011 10 16.0934 0 0
1:35 pm 13:35 Sunny 64 17.7 37 2.8 37 37 SW 17 28 29.85 1011 10 16.0934 0 0
1:55 pm 13:55 Sunny 64 17.9 39 3.8 39 39 SSW 15 24 29.84 1011 10 16.0934 0 0
2:15 pm 14:15 Sunny 67 19.2 35 1.6 31 31 WSW 16 26 29.81 1009 10 16.0934 0 0
2:35 pm 14:35 Sunny 67 19.7 36 2 31 31 WSW 18 30 29.8 1009 10 16.0934 0 0
2:55 pm 14:55 Sunny 69 20.3 36 2.1 30 30 WSW 20 31 29.77 1008 10 16.0934 0 0
3:15 pm 15:15 Sunny 69 20.5 35 1.8 29 29 SW 20 31 29.75 1007 10 16.0934 0 0
3:35 pm 15:35 Sunny 70 21.1 35 1.7 28 28 WSW 14 22 29.73 1007 10 16.0934 0 0
3:55 pm 15:55 Sunny 71 21.6 34 1.2 26 26 W 16 26 29.71 1006 10 16.0934 0 0
4:15 pm 16:15 Sunny 72 22.1 34 1.1 25 25 SW 20 31 29.68 1005 10 16.0934 0 0
4:35 pm 16:35 Sunny 72 22.1 33 0.3 24 24 WSW 20 31 29.68 1005 10 16.0934 0 0
4:55 pm 16:55 Sunny 71 21.7 32 0 24 24 WSW 17 28 29.69 1005 10 16.0934 0 0
5:15 pm 17:15 Sunny 71 21.7 31 -0.7 22 22 WSW 15 24 29.68 1005 10 16.0934 0 0
5:35 pm 17:35 Sunny 70 21.2 31 -0.7 23 23 WSW 15 24 29.68 1005 10 16.0934 0 0
5:55 pm 17:55 Sunny 71 21.8 31 -0.4 23 23 W 10 17 29.67 1005 10 16.0934 0 0
6:15 pm 18:15 Sunny 71 21.6 32 -0.2 23 23 W 14 22 29.66 1004 10 16.0934 0 0
6:35 pm 18:35 Sunny 68 20.1 32 0.2 26 26 WSW 7 11 29.67 1005 10 16.0934 0 0
6:55 pm 18:55 Sunny 68 20.1 34 1.3 29 29 SSW 12 19 29.67 1005 10 16.0934 0 0
7:15 pm 19:15 Sunny 66 19.1 37 2.5 33 33 SSW 10 17 29.67 1005 10 16.0934 0 0
7:35 pm 19:35 Sunny 63 17.2 37 2.8 38 38 SSW 10 17 29.68 1005 10 16.0934 0 0
7:55 pm 19:55 Clear 60 15.7 37 2.8 42 42 S 10 17 29.68 1005 10 16.0934 0 0
8:15 pm 20:15 Clear 59 14.9 37 2.9 45 45 SSW 13 20 29.69 1005 10 16.0934 0 0
8:35 pm 20:35 Clear 59 14.8 37 3 45 45 S 13 20 29.69 1005 10 16.0934 0 0
8:55 pm 20:55 Clear 58 14.4 37 3 47 47 SSW 15 24 29.69 1005 10 16.0934 0 0
9:15 pm 21:15 Clear 58 14.2 37 3 47 47 SSW 15 24 29.68 1005 10 16.0934 0 0
9:35 pm 21:35 Clear 57 13.7 37 3 49 49 SSW 15 24 29.68 1005 10 16.0934 0 0
9:55 pm 21:55 Clear 56 13.5 37 3 49 49 S 14 22 29.68 1005 10 16.0934 0 0
10:15 pm 22:15 Clear 53 11.7 37 3 55 55 S 10 17 29.7 1006 10 16.0934 0 0
10:35 pm 22:35 Clear 54 12.1 37 3 54 54 S 9 15 29.69 1005 10 16.0934 0 0
10:55 pm 22:55 Clear 52 11.2 38 3.1 58 58 SSE 7 11 29.69 1005 10 16.0934 0 0
11:15 pm 23:15 Clear 55 12.5 38 3.6 55 55 S 12 19 29.67 1005 10 16.0934 0 0
11:35 pm 23:35 Partly Cloudy 57 14 38 3.5 49 49 SSW 20 31 29.65 1004 10 16.0934 0 0
11:55 pm 23:55 Partly Cloudy 57 14 38 3.5 49 49 SW 17 28 29.66 1004 10 16.0934 0 0

Powered by AerisWeather